Погода в Братском

Украина / Николаевская область     47°51′58″N   31°34′24″E
темп.,
°C
ветер,
м/с
пор.,
м/с
влажн.,
%
обл.,
%
осадки,
мм/ч
давл.,
гПа
погр.,
м
17 апреля, сб
сб1700:00+5з61189100 1.1 1017890
03:00+4з5108558 1.3 1018497
06:00+2зюз39925 0.0 1019204
09:00+7зсз46715 0.0 1020556
12:00+11зюз465876 0.0 10201552
15:00+11зюз3455100 0.1 10201123
18:00+12с215270 0.0 1019639
21:00+8в227076 0.0 102042
18 апреля, вс
вс1800:00+6юз2270100 0.0 101919
03:00+5ююз127176 0.0 101912
06:00+5ююз117146 0.0 101910
09:00+9ю225662 0.0 1019334
12:00+13ю334096 0.0 10181254
15:00+14ююз223786 0.0 10171847
18:00+15з0240100 0.0 10161717
21:00+12ссв1151100 0.0 101610
19 апреля, пн
пн1900:00+10ю225785 0.0 101638
03:00+9юз227089 0.0 101657
06:00+9зсз116988 0.0 101514
09:00+10сз2268100 0.0 101552
12:00+11юв2263100 0.0 1014309
15:00+12ссв1258100 0.0 1014490
18:00+12ссв1164100 0.0 101217
21:00+11ссв3364100 0.0 101058
20 апреля, вт
вт2000:00+11св5975100 0.0 1008232
03:00+10всв61282100 0.2 1005546
06:00+8ссв81389100 3.8 1002586
09:00+9ссв91690100 8.8 998784
12:00+8ссв91592100 9.6 996877
15:00+9ссз101489100 15.9 996907
18:00+9сз71290100 5.3 10001122
21:00+9з81486100 6.6 1004729
21 апреля, ср
ср2100:00+8з61285100 0.1 1007493
03:00+7зюз5989100 0.1 1009314
06:00+6зюз4893100 0.0 1011244
09:00+9з5780100 0.0 1013509
12:00+12з5657100 0.0 10151445
15:00+13з5651100 0.0 10161829
18:00+13зюз2453100 0.0 10171253
21:00+10ююз2262100 0.0 101913